Ithaca, NY

7:33 PM EDT on April 24, 2017 (GMT -0400)
Tompkins County

Weather History for KITH - December, 2012

Change the Weather History Date:

Wednesday, December 19, 2012

  Actual Average Record
Temperature  
Mean Temperature 34 °F -  
Max Temperature 36 °F 30 °F 53 °F (1931)
Min Temperature 27 °F 15 °F -12 °F (1973)
Degree Days  
Heating Degree Days 32    
Moisture  
Dew Point 28 °F    
Average Humidity 77    
Maximum Humidity 89    
Minimum Humidity 63    
Precipitation  
Precipitation 0.00 in - - ()
Sea Level Pressure  
Sea Level Pressure 29.92 in    
Wind  
Wind Speed 13 mph (NW)    
Max Wind Speed 20 mph    
Max Gust Speed 25 mph    
Visibility 10 miles    
Events      
Averages and records for this station are not official NWS values.
T = Trace of Precipitation, MM = Missing Value Source: NWS Daily Summary

Daily Weather History Graph

Daily Weather History Graph

Search for Another Location

Airport or City:

Trip Planner

Search our weather history database for the weather conditions in past years. The results will help you decide how hot, cold, wet, or windy it might be!

Date:

Astronomy

Dec. 19, 2012 Rise Set
Actual Time 7:31 AM EST 4:35 PM EST
Civil Twilight 6:59 AM EST 5:07 PM EST
Nautical Twilight 6:23 AM EST 5:42 PM EST
Astronomical Twilight 5:49 AM EST 6:17 PM EST
Moon 11:31 AM EST (12/19) No Moon Set
Length of Visible Light 10h 08m
Length of Day
9h 03m
Waxing Crescent, 45% of the Moon is Illuminated
Dec 19
Waxing Crescent
Dec 20
First Quarter
Dec 28
Full
Jan 4
Last Quarter
Jan 11
New

Hourly Weather History & Observations

Time (EST) Temp. Windchill Dew Point Humidity Pressure Visibility Wind Dir Wind Speed Gust Speed Precip Events Conditions
12:05 AM 35.6 °F 25.9 °F 30.2 °F 81% 29.69 in 10.0 mi WNW 16.1 mph - N/A   Overcast
12:56 AM 36.0 °F 26.7 °F 28.0 °F 73% 29.73 in 10.0 mi WNW 15.0 mph - N/A   Overcast
1:56 AM 36.0 °F 26.3 °F 29.1 °F 76% 29.74 in 10.0 mi WNW 16.1 mph - N/A   Overcast
2:25 AM 35.6 °F 28.0 °F 28.4 °F 75% 29.72 in 10.0 mi WNW 10.4 mph - N/A   Overcast
2:56 AM 34.9 °F 25.3 °F 28.0 °F 76% 29.75 in 10.0 mi WNW 15.0 mph - N/A   Mostly Cloudy
3:18 AM 35.6 °F 27.1 °F 28.4 °F 75% 29.73 in 10.0 mi NW 12.7 mph - N/A   Overcast
3:56 AM 32.9 °F 23.7 °F 28.0 °F 82% 29.77 in 10.0 mi WNW 12.7 mph - N/A   Partly Cloudy
4:56 AM 32.9 °F 24.1 °F 28.0 °F 82% 29.78 in 10.0 mi WNW 11.5 mph - N/A   Mostly Cloudy
5:56 AM 32.9 °F 23.7 °F 28.0 °F 82% 29.81 in 10.0 mi NW 12.7 mph - N/A   Overcast
6:10 AM 33.8 °F 25.8 °F 28.4 °F 81% 29.78 in 10.0 mi WNW 10.4 mph - N/A   Overcast
6:20 AM 33.8 °F 25.3 °F 28.4 °F 81% 29.79 in 10.0 mi WNW 11.5 mph - N/A   Overcast
6:56 AM 32.9 °F 22.8 °F 29.1 °F 86% 29.83 in 10.0 mi WNW 15.0 mph - N/A   Mostly Cloudy
7:56 AM 32.9 °F 25.9 °F 29.1 °F 86% 29.85 in 10.0 mi NW 8.1 mph - N/A   Mostly Cloudy
8:56 AM 32.9 °F 24.7 °F 30.0 °F 89% 29.88 in 10.0 mi WNW 10.4 mph - N/A   Mostly Cloudy
9:56 AM 34.0 °F 25.0 °F 31.1 °F 89% 29.91 in 10.0 mi WNW 12.7 mph - N/A   Mostly Cloudy
10:56 AM 36.0 °F 28.0 °F 30.0 °F 79% 29.92 in 10.0 mi WNW 11.5 mph - N/A   Mostly Cloudy
11:56 AM 36.9 °F 26.8 °F 29.1 °F 74% 29.94 in 10.0 mi WNW 18.4 mph 25.3 mph N/A   Mostly Cloudy
12:56 PM 36.0 °F 25.3 °F 28.0 °F 73% 29.96 in 10.0 mi WNW 19.6 mph - N/A   Overcast
1:56 PM 36.9 °F 27.1 °F 28.0 °F 70% 29.98 in 10.0 mi WNW 17.3 mph - N/A   Mostly Cloudy
2:56 PM 36.9 °F 28.7 °F 28.0 °F 70% 30.01 in 10.0 mi WNW 12.7 mph - N/A   Mostly Cloudy
3:56 PM 36.9 °F 29.6 °F 27.1 °F 68% 30.03 in 10.0 mi NW 10.4 mph - N/A   Overcast
4:56 PM 36.9 °F 29.1 °F 25.2 °F 63% 30.06 in 10.0 mi NNW 11.5 mph - N/A   Overcast
5:56 PM 34.9 °F 26.6 °F 25.2 °F 68% 30.10 in 10.0 mi NW 11.5 mph - N/A   Mostly Cloudy
6:56 PM 34.9 °F 29.0 °F 27.1 °F 73% 30.13 in 10.0 mi NNW 6.9 mph - N/A   Overcast
7:56 PM 34.9 °F 28.3 °F 28.0 °F 76% 30.14 in 10.0 mi NW 8.1 mph - N/A   Overcast
8:56 PM 34.9 °F 29.0 °F 28.0 °F 76% 30.16 in 10.0 mi NW 6.9 mph - N/A   Overcast
9:56 PM 32.9 °F 26.7 °F 28.0 °F 82% 30.17 in 10.0 mi NNW 6.9 mph - N/A   Overcast
10:56 PM 31.1 °F 24.5 °F 25.2 °F 79% 30.20 in 10.0 mi North 6.9 mph - N/A   Overcast
11:56 PM 27.1 °F 21.8 °F 22.1 °F 81% 30.21 in 10.0 mi WNW 4.6 mph - N/A   Clear